Location: Unspecified
(0.0000°N, 0.0000°E)
Time: 04:46:15
(UTC+00:00)

deb r/b Ablestar - Pass Details

Date: 17 September 2024
Orbit: 702 x 890 km, 66.9° (Epoch: 08 October)

Event Time Altitude Azimuth Distance (km) Brightness Sun altitude
Rises 04:45:06 0° 358° (N) 3,071 ? -17.3°
Reaches altitude 10° 04:47:39 10° 9° (N) 2,156 ? -16.7°
Maximum altitude 04:51:57 31° 71° (ENE) 1,234 ? -15.6°
Drops below altitude 10° 04:56:19 10° 132° (SE) 2,204 ? -14.5°
Sets 04:58:56 0° 142° (SE) 3,149 ? -13.9°
